Location: Chircca
(13.7944°S, 72.0608°W)
Time: 05:07:00
(UTC+00:00)

Lacrosse 4 Rocket - Pass Details

Date: 14 July 2020
Orbit: 543 x 616 km, 68.0° (Epoch: 14 August)

Event Time Altitude Azimuth Distance (km) Brightness Sun altitude
Exits shadow 09:30:35 23° 339° (NNW) 1,325 3.2 -24.2°
Drops below altitude 10° 09:32:30 10° 355° (N) 1,964 4.3 -23.8°
Sets 09:34:52 0° 3° (N) 2,859 5.2 -23.2°
